www.pogodaiklimat.ru

Погода и климат >> Архив погоды >> Австрия >> Мурау


ПОГОДА в Мурау

  • Прогноз погоды в Мурау
  • Монитор погоды в Мурау

АРХИВ ПОГОДЫ в Мурау

Время (UTC), дата Ветер
(напр.,м/с)
 
Видим.   Явления Облачность Т
(С)
Тd
(С)
f
(%)
Тe
(С)
Тes
(С)
Комфортность P
(гПа)
Po
(гПа)
Тmin
(С)
Tmax
(С)
R
(мм)
R24
(мм)
S
(см)
10 12.07 ЮЗ 2 н/о н/о +21.0 +7.2 41 +23 +23 комфорт 1010.5 920.5
11 12.07 ЮВ 1 н/о н/о +21.9 +7.3 39 +23 +23 комфорт 1010.0 920.3
12 12.07 ЮЗ 1 н/о н/о +22.3 +6.5 36 +23 +23 комфорт 1009.6 920.0
13 12.07 В 4 н/о н/о +22.3 +8.9 42 +24 +24 комфорт 1009.0 919.5
14 12.07 СЗ 3 н/о н/о +21.7 +6.8 38 +22 +22 комфорт 1009.3 919.6 0.0
15 12.07 З 1 н/о н/о +22.4 +6.2 35 +23 +23 комфорт 1008.5 919.0 0.0
16 12.07 СЗ 2 н/о н/о +22.0 +8.0 41 +23 +23 комфорт 1008.3 918.8
17 12.07 З 2 н/о н/о +19.8 +8.0 46 +21 +21 комфорт 1009.4 919.1
18 12.07 штиль 0 н/о н/о +19.1 +8.7 51 +20 +20 1010.1 919.6 +13.6 +23.7 0.0
19 12.07 штиль 0 н/о н/о +17.5 +9.0 57 +18 +18 1011.0 919.9
20 12.07 штиль 0 н/о н/о +16.1 +9.3 64 +16 +16 1011.9 920.3
21 12.07 штиль 0 н/о н/о +15.0 +9.4 69 +15 +15 1012.7 920.7
22 12.07 штиль 0 н/о н/о +14.7 +9.5 71 +14 +14 1013.0 920.9
23 12.07 штиль 0 н/о н/о +14.1 +9.6 74 +14 +14 1012.9 920.7
00 13.07 ЮВ 1 н/о в посл. час осадки н/о +12.7 +11.1 90 +13 +13 1013.4 920.7 3
01 13.07 З 1 н/о н/о +12.3 +11.0 92 +12 +12 1013.3 920.5
02 13.07 штиль 0 н/о н/о +11.5 +10.5 94 +11 +11 1013.1 920.1
03 13.07 З 1 н/о н/о +11.4 +10.4 94 +11 +11 1012.9 919.9
04 13.07 ЮВ 1 н/о н/о +11.3 +10.4 94 +11 +11 1012.9 919.8
05 13.07 З 1 н/о н/о +11.4 +9.6 89 +11 +11 1013.0 919.9 0.0
06 13.07 З 1 н/о н/о +11.9 +9.8 87 +12 +12 1012.8 919.9 +11.2 +19.5 3
07 13.07 З 2 н/о н/о +12.8 +10.1 84 +12 +12 1012.5 919.9 0.0
08 13.07 ЮВ 1 н/о н/о +15.5 +11.2 76 +16 +16 1011.5 919.9
09 13.07 СЗ 2 н/о н/о +17.8 +7.5 51 +18 +18 1011.0 920.0 0.0
10 13.07 З 2 н/о в посл. час осадки н/о +18.4 +8.0 51 +19 +19 1011.4 920.5 0.0
11 13.07 З 3 н/о н/о +17.6 +6.0 46 +18 +18 1012.0 920.8 0.0
12 13.07 С 3 н/о {осадки} н/о +17.7 +6.1 46 +18 +18 1012.0 920.8 0.0
14 13.07 З 3 н/о н/о +17.9 +6.0 46 +18 +18 1011.6 920.5
15 13.07 З 3 н/о н/о +17.3 +6.2 48 +17 +17 1012.0 920.7 0.0
17 13.07 З 2 н/о н/о +17.7 +6.5 48 +18 +18 1012.1 920.9 0.0
18 13.07 З 3 н/о н/о +17.0 +5.6 47 +17 +17 1012.5 921.1 +11.8 +18.7 0.0
19 13.07 СЗ 1 н/о н/о +16.1 +6.0 51 +17 +17 1012.9 921.2
20 13.07 З 1 н/о н/о +14.5 +6.5 59 +15 +15 1014.1 921.8
21 13.07 штиль 0 н/о н/о +14.1 +7.2 63 +14 +14 1014.7 922.2
22 13.07 ЮВ 1 н/о н/о +13.9 +7.7 66 +14 +14 1014.9 922.4
23 13.07 З 1 н/о н/о +13.7 +7.8 68 +14 +14 1015.0 922.4
00 14.07 СЗ 2 н/о н/о +13.3 +8.0 70 +13 +13 1014.7 922.0 0.0
01 14.07 З 1 н/о н/о +13.5 +7.5 67 +14 +14 1014.2 921.6
02 14.07 З 2 н/о н/о +12.7 +7.8 72 +12 +12 1014.1 921.3
03 14.07 СЗ 2 н/о н/о +12.3 +7.8 74 +11 +11 1014.2 921.2
04 14.07 СЗ 1 н/о н/о +11.9 +7.7 75 +12 +12 1014.3 921.2
05 14.07 З 1 н/о н/о +12.8 +8.0 73 +13 +13 1014.2 921.4
06 14.07 СЗ 1 н/о н/о +14.6 +8.0 65 +15 +15 1013.5 921.3 +11.7 +17.2 0.0
07 14.07 СЗ 2 н/о н/о +16.4 +8.0 58 +17 +17 1013.0 921.4
08 14.07 СЗ 2 н/о н/о +17.8 +7.2 50 +18 +18 1012.8 921.6
09 14.07 СЗ 2 н/о н/о +19.2 +7.1 45 +20 +20 1012.6 921.8
10 14.07 СЗ 2 н/о н/о +20.5 +7.2 42 +22 +22 комфорт 1011.7 921.4
11 14.07 С 2 н/о н/о +19.6 +6.6 43 +21 +21 комфорт 1012.0 921.4
12 14.07 Ю 2 н/о н/о +18.9 +7.7 48 +20 +20 1012.1 921.3 0.0
13 14.07 З 2 н/о ливневой дождь н/о +18.9 +8.6 51 +20 +20 1012.1 921.3 0.2
14 14.07 В 3 н/о в посл. час осадки н/о +19.8 +10.0 53 +21 +21 комфорт 1011.6 921.2 0.0
15 14.07 В 1 н/о осадки {ливн. осадки} н/о +17.9 +12.7 72 +19 +19 1012.1 921.2 0.6
16 14.07 ЮВ 3 н/о н/о +17.5 +11.0 66 +18 +18 1012.1 921.0 0.0
17 14.07 В 1 н/о н/о +17.0 +11.7 71 +18 +18 1012.2 921.0
18 14.07 штиль 0 н/о {ливн. осадки} н/о +16.5 +11.5 72 +16 +16 1012.6 921.2 +14.4 +21.3 0.6
19 14.07 В 1 н/о н/о +15.2 +11.3 78 +16 +16 1013.5 921.6
20 14.07 З 1 н/о н/о +14.3 +10.2 76 +15 +15 1014.5 922.2
21 14.07 штиль 0 н/о н/о +12.7 +9.2 79 +12 +12 1015.2 922.3
22 14.07 штиль 0 н/о н/о +11.2 +8.9 86 +11 +11 1015.9 922.5
23 14.07 З 1 н/о н/о +10.3 +8.1 86 +10 +10 1016.4 922.6
00 15.07 З 1 н/о н/о +9.5 +7.6 88 +9 +9 1016.5 922.5
01 15.07 штиль 0 н/о н/о +8.7 +7.1 90 +8 +8 1016.7 922.4
02 15.07 З 1 н/о н/о +8.2 +6.7 90 +7 +7 1016.7 922.2
03 15.07 ЮЗ 1 н/о н/о +8.1 +6.6 90 +7 +7 1016.7 922.2
04 15.07 СВ 1 н/о н/о +8.4 +6.5 88 +8 +8 1016.7 922.3
05 15.07 штиль 0 н/о н/о +8.7 +6.6 87 +8 +8 1016.9 922.5
06 15.07 С 1 н/о н/о +11.5 +7.1 74 +11 +11 1015.4 922.1 +8.0 +16.6
07 15.07 СЗ 1 н/о н/о +14.1 +7.8 66 +15 +15 1014.2 921.8
08 15.07 СВ 1 н/о н/о +17.6 +8.6 56 +19 +19 1012.4 921.2
09 15.07 В 3 н/о н/о +19.4 +7.0 44 +20 +20 1011.8 921.2
10 15.07 В 3 н/о н/о +21.4 +6.7 39 +22 +22 комфорт 1011.2 921.2
11 15.07 В 2 н/о н/о +20.5 +6.8 41 +22 +22 комфорт 1011.4 921.1
12 15.07 ЮВ 2 н/о н/о +20.5 +6.9 41 +22 +22 комфорт 1011.4 921.1
13 15.07 В 3 н/о н/о +21.3 +7.3 40 +22 +22 комфорт 1010.9 920.9
14 15.07 В 2 н/о н/о +21.4 +6.9 39 +22 +22 комфорт 1010.9 920.9
15 15.07 В 4 н/о н/о +20.0 +7.7 45 +21 +21 комфорт 1011.5 921.1
16 15.07 СВ 1 н/о осадки н/о +17.6 +10.4 63 +19 +19 1012.8 921.6 0.3
17 15.07 С 1 н/о в посл. час осадки н/о +16.3 +12.0 76 +17 +17 1012.8 921.3 0.4
18 15.07 СЗ 2 н/о {осадки} н/о +15.5 +11.6 78 +15 +15 1013.4 921.6 +11.2 +21.9 0.7
19 15.07 СЗ 1 н/о н/о +14.9 +11.4 80 +15 +15 1014.2 922.1
20 15.07 штиль 0 н/о н/о +13.0 +10.5 85 +13 +13 1015.7 922.9
21 15.07 З 1 н/о н/о +11.8 +9.6 86 +12 +12 1016.7 923.4
22 15.07 З 1 н/о н/о +10.7 +8.9 89 +10 +10 1017.4 923.7
23 15.07 З 1 н/о н/о +9.9 +8.3 90 +9 +9 1017.8 923.8
00 16.07 СЗ 1 н/о н/о +9.3 +7.7 90 +9 +9 1018.3 924.0
01 16.07 З 1 н/о н/о +8.7 +7.3 91 +8 +8 1018.6 924.1
02 16.07 З 1 н/о н/о +8.3 +6.9 91 +7 +7 1018.7 924.1
03 16.07 З 1 н/о н/о +8.1 +6.6 90 +7 +7 1018.8 924.1
04 16.07 З 1 н/о н/о +7.6 +6.3 91 +7 +7 1018.9 924.0
05 16.07 З 1 н/о н/о +7.9 +6.4 90 +7 +7 1018.8 924.0
06 16.07 СЗ 1 н/о н/о +10.3 +7.2 81 +10 +10 1017.7 923.8 +7.6 +15.8
07 16.07 штиль 0 н/о н/о +13.9 +7.8 67 +14 +14 1016.1 923.5
08 16.07 С 1 н/о н/о +16.4 +8.9 61 +17 +17 1014.8 923.1
09 16.07 З 1 н/о н/о +19.0 +7.6 48 +21 +21 комфорт 1013.4 922.5
10 16.07 СЗ 3 н/о н/о +21.8 +6.5 37 +23 +23 комфорт 1012.3 922.3
11 16.07 З 3 н/о н/о +22.4 +4.8 32 +23 +23 комфорт 1012.1 922.3 0.0
12 16.07 З 2 н/о н/о +24.2 +5.6 30 +24 +24 комфорт 1011.1 921.9 0.0
13 16.07 СЗ 2 н/о н/о +24.6 +4.4 27 +24 +24 комфорт 1010.9 921.8
14 16.07 З 2 н/о н/о +23.4 +5.6 32 +24 +24 комфорт 1011.3 921.8
15 16.07 В 1 н/о н/о +24.6 +6.5 31 +25 +25 комфорт 1010.2 921.2
16 16.07 З 2 н/о н/о +23.4 +5.3 31 +24 +24 комфорт 1010.4 921.0 0.0
17 16.07 З 2 н/о н/о +23.1 +6.2 34 +24 +24 комфорт 1010.8 921.3
18 16.07 З 1 н/о н/о +21.6 +7.4 40 +23 +23 комфорт 1011.3 921.4 +9.9 +25.0 0.0
19 16.07 З 2 н/о н/о +18.7 +8.1 50 +20 +20 1012.9 922.0
20 16.07 штиль 0 н/о н/о +16.5 +8.1 58 +16 +16 1014.3 922.6
21 16.07 З 1 н/о н/о +14.9 +8.0 63 +16 +16 1015.4 923.1
22 16.07 СЗ 1 н/о н/о +13.1 +7.9 71 +13 +13 1016.3 923.4
23 16.07 З 2 н/о н/о +11.8 +7.6 75 +11 +11 1017.1 923.7
00 17.07 З 1 н/о н/о +10.7 +7.5 81 +10 +10 1017.8 924.0
01 17.07 З 1 н/о н/о +9.8 +7.1 83 +9 +9 1017.9 923.8
02 17.07 З 1 н/о н/о +9.2 +6.8 85 +9 +9 1018.0 923.7
03 17.07 З 1 н/о н/о +8.7 +6.6 87 +8 +8 1018.3 923.8
04 17.07 З 1 н/о н/о +8.3 +6.4 88 +7 +7 1018.4 923.8
05 17.07 З 1 н/о н/о +8.6 +6.5 87 +8 +8 1018.3 923.8
06 17.07 СВ 1 н/о н/о +11.3 +7.6 78 +11 +11 1016.8 923.3 +8.1 +22.2
07 17.07 З 1 н/о н/о +16.4 +8.1 58 +17 +17 1014.4 922.7
08 17.07 В 1 н/о н/о +19.4 +9.0 51 +21 +21 комфорт 1012.7 922.0
09 17.07 ЮВ 2 н/о н/о +22.8 +7.9 38 +24 +24 комфорт 1010.7 921.2
10 17.07 СВ 2 н/о н/о +24.8 +4.2 26 +24 +24 комфорт 1009.4 920.5
11 17.07 В 1 н/о н/о +26.8 +7.1 29 +26 +26 жарко 1008.1 919.9
12 17.07 ЮВ 3 н/о н/о +26.9 +7.9 30 +27 +27 жарко 1007.7 919.6
13 17.07 ЮВ 3 н/о н/о +26.7 +8.8 32 +27 +27 жарко 1007.3 919.2
14 17.07 ЮВ 2 н/о н/о +27.4 +9.4 32 +28 +28 жарко 1006.7 918.9
15 17.07 В 4 н/о н/о +27.8 +10.7 34 +28 +28 жарко 1006.4 918.7
16 17.07 ЮВ 2 н/о н/о +26.2 +10.6 38 +27 +27 жарко 1006.3 918.2
17 17.07 СВ 4 н/о н/о +24.4 +9.9 40 +25 +25 комфорт 1007.1 918.4 0.0
18 17.07 В 4 н/о в посл. час осадки н/о +19.6 +14.2 71 +21 +21 комфорт 1009.0 918.9 +10.4 +28.2 0.3
19 17.07 В 5 н/о н/о +18.3 +12.1 67 +18 +18 1011.2 920.4
20 17.07 В 5 н/о осадки н/о +16.3 +13.4 83 +15 +15 1013.5 922.0 0.7
21 17.07 Ю 1 н/о в посл. час осадки н/о +15.0 +13.4 90 +15 +15 1014.9 922.9 2
22 17.07 З 1 н/о осадки н/о +14.3 +13.1 92 +15 +15 1015.4 923.1 4
23 17.07 ЮВ 1 н/о в посл. час осадки н/о +14.1 +13.2 94 +14 +14 1015.4 923.0 2
00 18.07 З 1 н/о {ливн. осадки} н/о +13.5 +12.6 94 +14 +14 1015.0 922.5 7
01 18.07 З 3 н/о н/о +12.8 +12.0 95 +11 +11 1014.8 922.1
02 18.07 штиль 0 н/о н/о +12.2 +11.5 95 +12 +12 1014.7 921.8
03 18.07 СЗ 1 н/о н/о +12.2 +11.5 95 +12 +12 1015.0 922.0
04 18.07 З 1 н/о н/о +12.6 +11.8 95 +13 +13 1014.7 921.9
05 18.07 штиль 0 н/о в посл. час осадки н/о +13.1 +12.1 94 +13 +13 1014.2 921.6 0.1
06 18.07 штиль 0 н/о {осадки} н/о +13.7 +12.2 91 +13 +13 1014.5 922.1 +12.0 +19.7 8
07 18.07 СЗ 1 н/о н/о +14.6 +12.8 89 +15 +15 1014.3 922.2
08 18.07 З 1 н/о в посл. час осадки н/о +15.1 +12.8 86 +16 +16 1014.0 922.1 0.0
09 18.07 штиль 0 н/о {осадки} н/о +16.5 +12.5 77 +16 +16 1013.4 921.9 0.0
10 18.07 ЮВ 2 н/о н/о +20.7 +14.5 68 +24 +24 комфорт 1011.4 921.4
11 18.07 В 2 н/о н/о +23.1 +11.1 47 +25 +25 комфорт 1010.2 920.9
12 18.07 ЮВ 1 н/о {осадки} н/о +24.0 +7.4 34 +24 +24 комфорт 1009.5 920.4 0.0
13 18.07 С 1 н/о в посл. час осадки н/о +19.0 +14.4 75 +21 +21 комфорт 1011.4 920.9 2
14 18.07 В 3 н/о н/о +24.1 +13.1 50 +26 +26 жарко 1009.2 920.3
15 18.07 В 1 н/о {осадки} н/о +23.1 +11.7 49 +26 +26 жарко 1009.6 920.4 2
16 18.07 З 1 н/о н/о +23.2 +8.2 38 +24 +24 комфорт 1009.7 920.4
17 18.07 З 1 н/о н/о +23.2 +6.9 35 +24 +24 комфорт 1010.4 921.0
18 18.07 З 1 н/о {осадки} н/о +21.3 +7.4 41 +22 +22 комфорт 1011.3 921.3 +13.4 +24.8 2
19 18.07 ЮЗ 1 н/о н/о +17.7 +9.5 59 +19 +19 1013.4 922.2
20 18.07 З 1 н/о н/о +15.7 +9.5 67 +16 +16 1015.3 923.3
21 18.07 З 1 н/о н/о +14.4 +9.7 73 +15 +15 1016.5 924.0
22 18.07 З 1 н/о н/о +14.3 +9.7 74 +15 +15 1016.8 924.3
23 18.07 З 1 н/о н/о +13.7 +9.9 78 +14 +14 1017.5 924.7
00 19.07 З 1 н/о н/о +12.4 +9.7 84 +12 +12 1018.1 924.9
01 19.07 З 1 н/о н/о +11.7 +9.1 84 +12 +12 1018.7 925.2
02 19.07 З 1 н/о н/о +11.0 +8.7 86 +11 +11 1019.1 925.3
03 19.07 З 1 н/о н/о +10.6 +8.6 87 +10 +10 1019.3 925.4
05 19.07 З 1 н/о н/о +10.5 +8.5 87 +10 +10 1019.7 925.7
06 19.07 СЗ 1 н/о н/о +12.8 +9.1 78 +13 +13 1018.9 925.7 +10.1 +21.9
07 19.07 СЗ 1 н/о н/о +16.9 +9.5 62 +18 +18 1017.2 925.4
08 19.07 СЗ 1 н/о н/о +19.8 +9.7 52 +22 +22 комфорт 1015.7 924.9
09 19.07 штиль 0 н/о н/о +22.7 +10.0 44 +24 +24 комфорт 1014.4 924.6
10 19.07 В 1 н/о н/о +25.6 +5.6 28 +25 +25 комфорт 1013.1 924.1

 

Местоположение метеостанции Мурау (Австрия): широта 47.12 долгота 14.18 высота над уровнем моря 813 м.

В архиве по умолчанию представлена погода в Мурау за последнюю неделю. Архивные данные за месяц целиком и за предыдущие месяцы, начиная с января 2011 года, Вы можете получить, выбрав интересующий диапазон дат из раскрывающегося списка и нажав кнопку "Ввод!".


*Определитесь, кто Вы:
робот инопланетянин человек

Внимание! Время в таблицах - всемирное. Для получения местного времени необходимо прибавить поправку, которая равна 1 ч.

Смотрите также архив погоды в соседних городах и на ближайших метеорологических станциях:

Погода в Ноймаркте (Австрия) (19 км)
Погода в Вайтенсфельд-им-Гурктале (Австрия) (30 км)
Погода в Марифапфаре (Австрия) (33 км)
Погода в Санкт-Михаэль-им-Лунгау (Австрия) (40 км)
Погода в Грёбминге (Австрия) (42 км)
Погода на Качберге (Австрия) (43 км)
Погода в Цельтвеге (Австрия) (44 км)
Погода в Цельтвеге (Австрия) (44 км)
Погода в Фельдкирхене (Австрия) (45 км)
Погода в Айген-им-Энсталь (Австрия) (46 км)

Пояснения к столбцам:

Ветер - указаны скорость ветра в м/с - средняя за 10 мин, порывы в срок и между сроками (в фигурных скобках) и направление, откуда дует ветер: С - северный, СВ - северо-восточный, В - восточный, ЮВ - юго-восточный, Ю - южный, ЮЗ - юго-западный, З - западный, СЗ - северо-западный.
Видимость - горизонтальная дальность видимости в метрах или километрах. При видимости от 1 до 10 км при отсутствии осадков обычно наблюдается дымка, при ухудшении видимости до 1 км и менее - туман. В сухую погоду видимость может ухудшаться дымом, пылью или мглою.
Явления - указаны атмосферные явления, наблюдавшиеся в срок или в последний час перед сроком; фигурными скобками обозначены явления, наблюдавшиеся между сроками (за 1-3 часа до срока); квадратными скобками обозначены град или гололедные отложения с указанием их диаметра в мм.
Облачность - указаны через наклонную черту общая и нижняя облачность в баллах и высота нижней границы облаков в метрах; квадратными скобками обозначены формы облаков: Ci - перистые, Cs - перисто-слоистые, Cc - перисто-кучевые, Ac - высококучевые, As - высокослоистые, Sc - слоисто-кучевые, Ns - слоисто-дождевые, Cu - кучевые, Cb - кучево-дождевые. Подробнее классификацию облаков см. в Атласе облаков (PDF).
T - Температура воздуха - температура, измеренная на высоте 2 м над землей.
Td - Температура точки росы - температура, при понижении до которой содержащийся в воздухе водяной пар достигнет насыщения.
f - Относительная влажность воздуха - влажноcть воздуха, измеренная на высоте 2 м над землей.
Te - Эффективная температура - температура, которую ощущает одетый по сезону человек в тени. Характеристика душности погоды. При расчете учитывается влияние влажности воздуха и скорости ветра на теплоощущения человека.
Tes - Эффективная температура на солнце - температура, которую ощущает человек, с поправкой на солнечный нагрев. Характеристика знойности погоды. Зависит от высоты солнца над горизонтом, облачности и скорости ветра. Ночью, в пасмурную погоду, а также при ветре 12 м/с и более поправка равна нулю.
P - Атмосферное давление - приведенное к уровню моря атмосферное давление.
Po - Атмосферное давление - измеренное на уровне метеостанции атмосферное давление.
Tmin - Минимальная температура - минимум температуры воздуха на высоте 2 м над землей.
Tmax - Максимальная температура - максимум температуры воздуха на высоте 2 м над землей.
R - Количество осадков - Количество выпавших осадков за период времени, мм. При наведении курсора мыши на число - период времени, за который выпало указанное количество осадков.
R24 - Количество осадков - Количество выпавших осадков за 24 часа, мм.
S - Снежный покров - Высота снежного покрова, см. При наведении курсора мыши на число - состояние снежного покрова и степень покрытия местности в баллах.